Temp
89 82 79 79 78 78 78 78 78 78 78 78 78 78 78 78 78 78 78 78 78 78 78 78 78 78 78 79 79 79 78 79 78 79 79 80 81 81 80 80 80 83 79
90 82 78 78 78 78 78 78 78 78 78 78 78 78 78 78 78 78 78 78 78 78 78 78 78 78 78 78 78 79 79 78 78 79 79 79 80 80 80 80 80 82 79
88 82 80 78 78 78 78 78 78 77 77 77 78 78 78 78 78 78 78 77 78 78 78 78 78 78 78 78 78 78 78 78 78 78 79 77 80 81 80 80 81 80 79
88 82 82 78 78 78 78 78 77 77 77 77 77 78 78 78 78 78 77 77 77 78 78 78 78 79 78 78 78 78 78 78 78 78 76 80 82 82 81 80 80 80 79
90 86 82 78 78 78 78 78 77 77 77 77 78 78 78 77 77 77 77 77 77 78 78 79 79 79 79 79 78 78 77 78 78 78 76 75 75 86 80 80 80 79 79
97 91 83 78 78 78 78 78 77 77 77 77 78 77 77 77 77 77 77 77 78 78 78 78 78 78 78 78 78 77 77 77 78 77 77 78 78 82 81 80 80 79 78
100 96 83 78 78 78 78 78 77 77 77 77 77 78 78 77 77 77 77 77 77 77 78 78 78 77 77 77 77 76 77 77 77 77 78 77 79 80 80 80 78 78 78
100 94 84 78 77 78 78 78 77 77 77 77 77 77 77 77 77 77 77 77 77 77 77 77 77 77 76 75 76 76 76 77 78 76 77 77 79 79 79 78 78 78 78
102 96 84 81 79 78 77 77 77 77 76 77 77 77 77 77 77 77 77 77 76 77 77 76 76 76 75 75 75 75 76 76 75 75 79 77 78 79 79 78 77 77 77
102 101 86 83 82 80 79 77 77 77 76 76 76 76 76 77 77 76 76 76 77 77 76 76 75 75 75 74 74 75 75 76 75 75 76 77 78 79 79 78 77 77 77
104 99 95 88 85 82 82 80 77 77 77 76 76 76 75 76 78 78 77 77 76 76 76 75 75 74 74 74 74 74 75 73 74 75 76 79 78 78 78 78 77 77 77
100 102 99 93 87 85 89 82 78 78 78 77 77 77 75 77 77 81 79 78 77 76 75 75 75 74 74 73 75 75 73 74 75 75 78 78 78 78 78 78 77 77 77
100 100 99 87 85 86 87 85 80 80 79 78 77 77 77 79 78 78 77 76 73 75 74 75 73 73 73 73 74 74 73 76 75 77 80 78 78 78 78 77 77 77 76
98 95 94 88 84 84 87 87 82 82 81 80 79 78 77 78 76 75 76 77 73 75 73 73 72 71 72 74 75 74 73 72 73 76 76 77 77 77 78 77 77 77 76
93 93 93 87 83 82 81 85 84 82 83 82 81 80 78 76 74 76 76 77 75 75 73 72 73 72 71 72 74 74 74 74 74 73 72 77 76 76 77 77 77 77 76
92 91 92 86 82 83 82 80 80 80 82 82 80 79 77 76 74 76 75 75 74 74 73 71 71 70 70 71 71 72 73 73 74 73 73 73 75 74 75 77 77 77 77
92 92 92 88 82 80 80 80 82 82 82 79 79 79 78 76 75 75 75 74 73 73 72 71 69 68 68 69 70 70 71 73 71 72 72 72 72 75 74 75 76 77 77
90 91 90 93 83 80 80 81 81 82 79 79 78 79 78 77 77 75 74 73 74 72 70 68 67 67 67 67 68 67 67 69 71 71 73 73 72 75 73 74 75 76 77
89 87 87 87 82 80 80 81 81 81 78 77 79 78 78 77 77 74 73 73 73 70 68 68 66 67 65 66 66 67 67 68 69 72 72 72 72 72 72 72 74 74 75
89 89 89 84 80 80 80 79 79 79 78 79 78 78 79 77 78 75 73 72 71 68 67 66 66 66 66 64 67 66 66 67 67 69 69 73 72 72 72 70 69 72 74
86 83 81 80 80 79 78 77 77 77 76 77 78 80 80 79 78 75 73 71 69 68 66 67 66 66 64 66 63 63 64 66 66 67 67 70 72 75 73 70 69 69 72
81 80 79 79 78 78 78 76 78 77 78 78 78 78 78 78 76 75 72 70 69 67 66 66 66 63 64 65 62 61 58 61 64 66 68 69 68 70 71 73 70 70 71
79 78 78 78 77 77 78 77 78 78 78 77 77 76 76 77 76 74 73 70 68 67 65 66 66 65 62 64 64 61 57 56 60 64 65 66 66 67 68 70 71 71 70
79 79 78 77 76 77 78 77 75 74 73 75 76 73 73 76 75 73 71 71 69 67 67 66 67 65 65 61 63 66 65 64 58 57 63 64 66 66 68 68 69 69 67
80 78 77 76 76 77 77 76 75 75 76 77 76 75 75 74 73 74 73 70 70 68 68 68 68 65 65 63 64 63 63 63 61 59 57 60 63 65 68 67 67 67 68
80 78 76 75 75 76 77 77 76 74 74 74 74 71 72 72 70 71 73 70 70 68 68 68 68 67 65 65 64 64 63 61 61 58 59 60 60 63 65 66 66 66 67
MSLP
1005.74 1006.79 1007.39 1007.77 1008.36 1008.97 1009.50 1009.98 1010.43 1010.81 1011.17 1011.51 1011.74 1012.01 1012.30 1012.54 1012.84 1013.08 1013.12 1013.39 1013.46 1013.59 1013.69 1013.83 1013.98 1014.02 1013.96 1014.08 1014.03 1014.11 1014.16 1014.01 1013.85 1013.65 1013.52 1013.35 1013.24 1013.22 1013.49 1013.48 1013.75 1013.91 1014.57
1005.14 1006.60 1007.24 1007.62 1008.20 1008.74 1009.32 1009.76 1010.19 1010.71 1011.11 1011.51 1011.82 1012.05 1012.25 1012.50 1012.71 1013.03 1013.20 1013.31 1013.50 1013.68 1013.74 1013.75 1013.85 1014.03 1014.00 1014.04 1014.01 1013.95 1014.15 1014.03 1014.07 1013.98 1013.75 1013.58 1013.35 1013.29 1013.57 1013.65 1013.91 1014.03 1014.56
1005.12 1006.47 1007.17 1007.51 1007.96 1008.56 1009.08 1009.43 1009.91 1010.47 1010.96 1011.41 1011.69 1011.98 1012.22 1012.42 1012.65 1012.92 1013.09 1013.14 1013.35 1013.67 1013.59 1013.65 1013.74 1013.88 1013.98 1013.99 1013.99 1014.02 1013.95 1013.98 1014.06 1013.87 1013.86 1013.69 1013.34 1013.16 1013.49 1013.51 1013.89 1014.24 1014.57
1004.90 1006.21 1006.83 1007.53 1007.97 1008.35 1008.81 1009.28 1009.77 1010.25 1010.69 1011.24 1011.58 1011.80 1012.11 1012.37 1012.62 1012.77 1012.97 1013.04 1013.10 1013.30 1013.34 1013.43 1013.56 1013.66 1013.82 1013.84 1013.85 1013.90 1013.87 1013.79 1013.75 1013.91 1013.89 1013.44 1012.98 1012.68 1013.00 1013.25 1013.80 1014.12 1014.57
1004.83 1006.06 1006.66 1007.34 1007.80 1008.27 1008.70 1009.01 1009.45 1010.00 1010.41 1010.70 1011.27 1011.61 1011.92 1012.17 1012.45 1012.66 1012.84 1012.91 1012.99 1013.05 1013.10 1013.18 1013.29 1013.41 1013.51 1013.59 1013.68 1013.66 1013.71 1013.80 1013.61 1013.63 1013.52 1013.24 1012.92 1012.55 1012.76 1013.32 1013.56 1013.97 1014.42
1004.19 1005.40 1006.42 1007.27 1007.69 1008.08 1008.47 1008.85 1009.22 1009.55 1010.21 1010.59 1011.05 1011.32 1011.65 1011.93 1012.19 1012.46 1012.59 1012.66 1012.73 1012.79 1012.81 1012.92 1013.07 1013.17 1013.25 1013.35 1013.38 1013.49 1013.49 1013.66 1013.51 1013.35 1012.90 1012.71 1012.49 1012.52 1012.89 1013.36 1013.79 1013.93 1014.35
1003.33 1004.28 1005.89 1006.78 1007.37 1007.87 1008.33 1008.78 1009.30 1009.75 1010.10 1010.52 1010.84 1011.03 1011.30 1011.55 1011.84 1012.14 1012.30 1012.39 1012.48 1012.58 1012.60 1012.65 1012.81 1013.01 1013.14 1013.20 1013.26 1013.39 1013.42 1013.47 1013.44 1013.15 1012.70 1012.48 1012.26 1012.46 1012.73 1013.26 1013.80 1014.08 1014.23
1002.77 1003.68 1005.03 1006.12 1006.80 1007.43 1007.91 1008.53 1009.07 1009.57 1009.92 1010.32 1010.64 1010.76 1010.98 1011.26 1011.59 1011.84 1011.94 1012.03 1012.15 1012.27 1012.40 1012.47 1012.63 1012.76 1012.88 1013.03 1013.07 1013.13 1013.26 1013.35 1013.20 1012.97 1012.52 1012.17 1012.08 1012.16 1012.75 1013.22 1013.59 1013.93 1014.16
1002.47 1003.24 1004.80 1005.83 1006.62 1007.21 1007.70 1008.15 1008.60 1009.17 1009.53 1009.76 1010.20 1010.47 1010.64 1011.00 1011.24 1011.41 1011.50 1011.58 1011.69 1011.86 1012.08 1012.27 1012.43 1012.55 1012.66 1012.76 1012.85 1012.93 1012.97 1013.05 1013.16 1012.89 1012.38 1012.03 1012.03 1011.97 1012.27 1012.78 1013.31 1013.82 1014.11
1001.41 1002.01 1003.38 1004.82 1005.95 1006.97 1007.56 1007.82 1008.27 1008.73 1009.09 1009.39 1009.68 1009.95 1010.23 1010.60 1010.85 1010.94 1010.92 1011.08 1011.23 1011.40 1011.66 1011.89 1012.10 1012.27 1012.32 1012.43 1012.58 1012.67 1012.75 1012.77 1012.84 1012.67 1012.31 1012.14 1012.14 1012.54 1012.54 1012.83 1013.10 1013.64 1013.96
1000.37 1000.89 1001.84 1003.16 1004.38 1005.45 1006.61 1007.56 1008.01 1008.20 1008.58 1009.06 1009.29 1009.42 1009.77 1010.07 1009.99 1010.05 1010.05 1010.26 1010.75 1011.06 1011.31 1011.54 1011.64 1011.81 1011.92 1012.02 1012.15 1012.24 1012.27 1012.42 1012.44 1012.27 1012.01 1011.73 1012.10 1012.31 1012.70 1012.97 1012.93 1013.37 1013.79
1000.07 1000.13 1000.54 1001.52 1002.42 1004.05 1004.91 1006.20 1007.37 1007.77 1008.01 1008.44 1008.64 1008.84 1009.14 1009.24 1009.19 1009.21 1009.34 1009.69 1010.14 1010.36 1010.79 1010.97 1011.15 1011.40 1011.59 1011.52 1011.23 1011.32 1011.80 1011.88 1011.83 1011.63 1011.44 1011.43 1011.71 1012.11 1012.58 1012.92 1013.05 1013.13 1013.69
999.73 999.74 999.71 1000.75 1001.58 1002.71 1003.43 1004.87 1006.24 1006.83 1007.15 1007.64 1007.75 1007.98 1008.21 1008.39 1008.59 1008.56 1008.89 1009.16 1009.74 1010.17 1010.36 1010.29 1010.71 1011.06 1010.93 1010.94 1010.62 1010.65 1010.96 1010.99 1011.01 1010.92 1010.66 1010.72 1011.05 1011.59 1012.05 1012.56 1012.89 1013.04 1013.47
999.57 999.62 999.59 1000.47 1001.15 1001.98 1002.68 1003.59 1004.92 1005.78 1006.26 1006.69 1006.81 1007.17 1007.44 1007.76 1008.03 1008.34 1008.61 1008.43 1009.10 1009.25 1009.60 1009.75 1010.12 1010.35 1010.47 1010.39 1010.28 1010.25 1010.53 1010.61 1010.57 1010.52 1010.22 1010.14 1010.68 1011.35 1011.83 1012.26 1012.66 1012.87 1013.22
999.29 999.38 999.54 1000.17 1000.62 1001.34 1001.95 1002.81 1003.79 1004.73 1005.33 1005.83 1006.04 1006.50 1006.92 1007.56 1007.93 1007.97 1008.20 1008.33 1008.63 1008.77 1009.13 1009.47 1009.54 1009.83 1010.20 1010.10 1009.88 1009.98 1010.09 1009.97 1010.04 1010.20 1010.21 1010.17 1010.70 1011.33 1011.73 1012.02 1012.37 1012.61 1012.91
998.82 998.92 999.22 1000.09 1000.53 1000.99 1001.62 1002.19 1003.12 1004.00 1004.56 1005.15 1005.45 1005.95 1006.29 1007.02 1007.52 1007.63 1007.82 1008.07 1008.28 1008.43 1008.71 1009.02 1009.29 1009.58 1009.86 1009.98 1009.87 1009.80 1009.80 1009.64 1009.77 1010.08 1010.26 1010.48 1010.66 1011.02 1011.40 1011.64 1012.03 1012.27 1012.58
998.55 998.57 998.75 999.37 1000.37 1001.10 1001.69 1002.28 1002.91 1003.67 1004.20 1004.72 1005.13 1005.55 1006.22 1006.68 1007.24 1007.53 1007.64 1007.77 1008.04 1008.15 1008.43 1008.83 1009.24 1009.60 1009.80 1009.73 1009.60 1009.60 1009.48 1009.68 1009.64 1009.99 1010.16 1010.30 1010.46 1010.59 1011.04 1011.32 1011.63 1011.99 1012.27
998.12 998.26 998.42 998.70 1000.15 1001.02 1001.75 1002.45 1003.07 1003.59 1004.10 1004.68 1005.06 1005.42 1005.94 1006.45 1006.86 1007.34 1007.52 1007.59 1007.61 1007.95 1008.51 1008.91 1009.10 1009.29 1009.39 1009.44 1009.42 1009.43 1009.49 1009.56 1009.60 1009.67 1009.83 1009.74 1010.07 1010.27 1010.66 1011.02 1011.18 1011.54 1011.97
997.43 997.80 998.19 998.76 1000.01 1000.91 1001.79 1002.53 1003.10 1003.59 1004.23 1004.56 1004.85 1005.23 1005.70 1006.09 1006.54 1007.06 1007.29 1007.34 1007.37 1007.92 1008.34 1008.59 1008.90 1009.10 1009.26 1009.40 1009.46 1009.46 1009.64 1009.54 1009.60 1009.72 1009.79 1009.59 1009.57 1009.88 1010.13 1010.45 1011.04 1011.27 1011.54
997.40 998.00 998.43 998.89 999.89 1000.90 1001.73 1002.53 1003.11 1003.68 1004.21 1004.50 1004.74 1005.05 1005.38 1005.65 1005.95 1006.44 1006.84 1007.08 1007.44 1007.89 1008.14 1008.50 1008.68 1008.80 1009.06 1009.33 1009.47 1009.54 1009.49 1009.55 1009.57 1009.38 1009.32 1009.36 1009.18 1009.34 1009.61 1010.10 1010.76 1011.00 1011.21
997.65 998.22 998.84 999.28 999.92 1000.86 1001.64 1002.56 1003.17 1003.66 1004.18 1004.41 1004.52 1004.80 1005.07 1005.39 1005.79 1006.16 1006.56 1006.82 1007.20 1007.57 1007.63 1007.98 1008.33 1008.61 1008.90 1009.00 1009.37 1009.57 1009.55 1009.46 1009.51 1009.29 1009.27 1009.06 1009.15 1008.97 1009.11 1009.67 1010.17 1010.46 1010.94
997.94 998.62 999.27 999.71 1000.23 1000.96 1001.73 1002.51 1002.95 1003.33 1003.72 1003.91 1004.11 1004.33 1004.73 1005.15 1005.60 1005.96 1006.38 1006.65 1006.95 1007.37 1007.50 1007.72 1008.09 1008.40 1008.64 1008.84 1009.09 1009.40 1009.49 1009.51 1009.32 1009.05 1008.89 1008.96 1009.12 1009.24 1009.13 1009.00 1009.54 1010.12 1010.51
998.20 998.89 999.50 999.99 1000.59 1001.20 1001.84 1002.48 1002.69 1003.02 1003.28 1003.61 1003.87 1004.33 1004.55 1005.00 1005.44 1005.75 1006.04 1006.35 1006.73 1007.07 1007.24 1007.28 1007.68 1008.08 1008.30 1008.55 1008.75 1008.79 1008.85 1008.75 1008.84 1008.93 1009.15 1009.23 1009.23 1009.21 1009.29 1009.33 1009.43 1009.84 1010.26
998.23 998.97 999.69 1000.27 1000.94 1001.48 1001.91 1002.43 1002.74 1003.09 1003.40 1003.49 1003.73 1004.27 1004.67 1004.99 1005.25 1005.54 1005.86 1006.17 1006.40 1006.70 1006.78 1007.07 1007.31 1007.44 1007.92 1008.19 1008.49 1008.51 1008.25 1008.16 1008.55 1008.96 1009.18 1009.30 1009.26 1009.30 1009.12 1009.27 1009.47 1009.83 1010.45
998.21 999.06 999.96 1000.65 1001.32 1001.61 1001.99 1002.49 1002.91 1003.15 1003.17 1003.40 1003.68 1004.03 1004.38 1004.84 1005.10 1005.40 1005.64 1005.89 1006.03 1006.34 1006.63 1006.78 1006.92 1007.28 1007.60 1007.91 1008.07 1008.04 1008.03 1008.05 1007.70 1008.61 1008.93 1009.17 1009.23 1009.11 1009.08 1009.23 1009.59 1010.16 1010.84
998.33 999.32 1000.12 1000.94 1001.45 1001.86 1002.40 1002.55 1002.92 1003.13 1003.36 1003.57 1003.84 1004.32 1004.55 1004.77 1005.13 1005.25 1005.34 1005.64 1005.85 1006.20 1006.29 1006.51 1006.73 1007.02 1007.38 1007.58 1007.60 1007.51 1007.72 1007.85 1008.02 1008.78 1008.75 1008.82 1008.86 1009.45 1009.46 1010.02 1010.50 1011.07 1011.31
Wind_Speed
14 18 21 20 19 17 16 15 13 12 11 10 10 9 9 9 9 9 8 7 5 4 4 2 2 1 2 3 3 4 6 7 8 10 11 11 8 4 3 7 8 7 10
19 18 22 21 20 18 17 16 15 13 11 10 9 9 9 8 7 7 7 6 5 3 2 1 0 2 2 3 3 4 4 6 8 9 11 11 9 5 5 7 8 4 11
19 17 20 21 20 19 18 18 16 15 13 11 10 9 9 8 7 7 6 4 4 3 2 2 3 3 4 5 4 5 5 5 7 9 11 7 9 12 10 9 7 7 10
19 16 17 20 20 20 19 18 17 16 15 13 12 11 9 8 7 6 5 5 5 5 4 4 5 6 6 6 6 6 6 5 6 9 7 8 10 14 14 12 10 8 10
17 15 15 22 20 20 19 19 18 18 17 16 14 12 10 9 8 7 7 7 7 7 7 7 7 8 8 8 9 8 6 7 8 8 7 8 7 9 16 11 10 9 11
17 16 16 22 20 20 20 20 19 19 18 16 15 13 11 10 9 9 9 8 9 9 9 10 10 10 9 9 9 8 7 9 8 8 8 8 8 8 7 7 8 9 12
15 16 20 25 21 20 20 19 18 17 17 16 15 14 12 11 10 10 10 10 11 10 10 11 12 11 12 9 8 9 7 8 8 8 8 6 4 9 10 8 6 6 10
9 13 18 25 24 21 20 19 18 17 17 16 15 14 12 11 11 10 10 11 12 11 10 9 9 7 6 8 8 7 7 8 9 7 9 7 3 13 11 7 4 5 7
7 13 15 15 18 21 19 18 18 18 17 17 15 14 12 11 10 10 10 11 12 10 9 9 8 9 8 8 8 8 9 10 7 7 10 5 10 14 13 11 6 4 8
14 14 18 16 15 13 12 17 17 17 17 16 16 15 13 11 11 12 13 13 13 12 11 9 9 10 9 9 9 10 11 13 7 8 7 3 9 5 8 8 7 4 7
7 14 19 19 18 16 14 13 15 18 17 16 15 14 11 7 9 14 16 17 17 13 12 12 11 11 12 12 13 14 16 6 8 7 7 6 10 8 5 6 7 5 7
12 9 17 17 19 18 13 13 14 13 10 10 10 10 8 9 8 11 3 15 13 17 16 14 14 14 12 6 6 18 6 8 7 8 7 12 13 11 7 6 4 6 8
12 11 5 15 15 18 14 11 8 8 8 9 13 10 9 8 8 4 4 7 7 12 6 9 9 7 9 7 6 4 8 8 6 7 10 16 15 14 10 7 5 6 10
12 8 10 17 12 14 11 10 12 9 9 9 11 12 8 4 3 3 3 1 7 6 8 5 5 8 8 7 5 4 7 6 4 6 5 17 14 12 11 10 9 6 12
8 7 8 15 14 12 9 9 10 10 9 10 9 10 6 5 5 4 5 4 5 3 4 6 4 2 3 5 5 5 7 6 5 3 1 12 12 12 12 12 11 9 13
6 6 7 13 11 12 12 7 6 6 7 8 5 6 8 5 4 3 4 4 3 3 1 3 2 1 4 4 5 6 5 5 4 4 2 6 14 14 13 14 12 11 13
6 5 3 8 12 11 9 8 3 5 4 5 4 5 7 6 4 3 3 3 4 4 3 3 4 4 4 5 4 4 4 5 4 5 4 4 6 12 15 15 15 12 13
7 5 5 6 13 11 8 6 5 4 4 2 5 4 6 6 5 4 4 4 4 3 2 3 4 3 4 4 4 2 3 5 3 2 5 3 4 6 11 16 15 14 14
8 7 7 7 14 12 9 6 6 5 4 3 3 4 8 8 8 6 4 4 1 1 3 3 4 4 3 3 4 2 3 4 4 5 8 6 6 5 6 13 14 14 14
6 3 2 6 12 12 7 5 4 3 4 4 4 4 6 5 6 5 4 4 3 3 4 3 5 4 4 4 3 3 3 4 4 5 4 6 6 6 5 8 7 8 14
4 6 7 7 7 9 7 8 6 7 4 4 4 6 5 4 4 4 4 3 3 4 6 5 4 4 4 3 1 2 3 5 5 4 5 5 4 5 4 7 5 5 7
6 7 6 6 8 8 6 5 5 5 7 5 5 5 6 5 5 4 5 3 4 4 5 5 5 3 3 4 3 3 3 3 5 5 2 2 2 5 5 5 6 6 7
8 8 7 7 10 8 7 5 2 4 2 3 2 3 4 3 2 5 5 4 4 4 4 5 5 6 4 4 7 4 3 4 4 3 4 3 4 4 5 5 5 6 7
10 9 9 9 9 7 8 5 5 3 3 2 4 5 5 5 5 4 4 4 4 4 4 4 4 5 4 4 4 8 7 2 3 3 3 4 5 5 4 3 5 8 8
11 10 10 11 10 7 5 7 4 4 2 3 2 4 3 2 3 3 4 4 4 3 2 5 4 5 4 3 5 4 7 5 3 1 4 4 2 3 2 4 5 7 7
12 12 11 12 9 8 5 6 4 6 4 3 2 3 1 1 2 4 4 4 3 4 4 3 4 5 5 5 4 5 3 4 5 3 3 6 6 2 3 5 7 6 5
Wind_Direction
133 152 159 154 155 158 157 153 152 152 150 147 143 138 135 133 132 131 128 122 110 105 108 92 51 8 355 320 315 321 315 320 325 325 328 333 322 339 169 156 167 184 145
134 157 162 158 161 162 161 160 160 159 158 158 156 154 148 145 143 141 140 138 136 144 138 136 191 297 294 288 294 303 294 307 306 307 312 312 277 267 230 208 199 135 157
137 159 166 163 167 165 167 167 164 164 165 170 168 166 164 163 164 168 168 167 172 199 196 243 262 256 272 278 275 272 284 280 293 297 294 290 277 208 214 209 211 165 167
138 157 168 170 170 170 174 171 168 169 171 176 177 177 176 179 187 194 204 205 213 239 251 246 252 264 255 259 264 257 272 274 290 282 279 265 252 201 203 200 199 177 179
136 155 170 174 175 176 177 175 175 176 177 179 183 182 184 187 198 210 223 231 237 248 260 265 264 264 260 251 249 263 260 274 271 282 258 253 264 264 192 196 196 191 184
149 157 163 174 180 182 183 182 182 179 180 180 184 185 189 197 208 218 227 236 247 256 261 264 267 262 263 268 267 242 270 272 281 272 253 255 258 120 144 194 234 208 193
164 162 158 173 184 186 187 185 186 184 181 184 188 189 194 203 214 221 230 237 242 251 263 270 272 277 267 276 263 267 256 272 277 280 279 257 234 112 140 160 219 237 214
175 153 158 174 180 188 187 187 185 187 185 187 193 194 197 205 216 226 236 247 240 242 255 267 276 281 269 267 258 255 256 255 274 266 267 281 233 131 126 128 162 227 218
216 155 153 171 182 185 189 187 185 188 189 187 193 196 199 209 217 225 238 246 231 236 244 255 266 271 267 258 249 250 255 253 254 271 279 281 176 160 150 141 147 211 216
196 181 155 162 176 188 190 191 189 189 192 192 192 194 198 209 222 230 233 233 228 224 227 234 252 263 263 256 248 239 237 244 242 257 264 234 112 133 131 134 136 197 217
244 190 167 166 170 178 189 192 192 192 196 196 198 195 190 215 225 226 223 225 215 216 223 226 234 246 253 253 244 233 229 223 226 235 249 214 151 149 152 162 141 184 208
292 281 185 178 167 170 180 185 190 197 199 197 202 196 200 216 221 234 118 200 189 198 209 224 230 239 253 254 244 225 215 224 232 238 231 171 160 162 174 182 170 167 197
305 300 282 177 165 167 177 171 180 194 195 202 202 203 197 209 216 202 212 186 181 199 214 217 226 227 227 225 241 177 198 225 222 230 240 178 162 170 168 187 201 183 192
292 308 296 170 161 175 170 170 174 190 190 200 201 200 198 189 195 219 262 192 177 199 205 218 191 214 235 250 248 224 188 216 220 266 272 166 160 172 179 189 202 204 191
294 307 296 164 169 169 170 172 175 189 187 194 191 190 177 182 218 207 207 211 169 194 198 215 195 205 268 245 244 256 215 228 241 270 136 149 156 173 191 197 206 207 192
271 266 269 154 169 168 180 171 160 174 179 186 173 164 168 173 210 237 206 204 193 199 239 6 314 229 255 268 238 246 238 210 214 269 183 173 175 182 197 200 207 210 198
286 243 218 141 163 168 172 178 148 180 177 167 162 164 159 171 206 259 253 213 195 213 198 224 227 230 239 265 257 237 171 214 239 223 241 192 195 188 201 201 200 208 207
252 229 195 173 154 158 163 175 191 175 160 157 167 164 168 163 190 225 225 224 220 133 168 217 242 243 245 249 273 273 294 238 239 266 242 231 192 205 206 207 201 198 207
216 201 165 155 152 155 155 171 188 155 155 215 173 166 167 179 195 206 228 240 181 135 220 213 232 222 237 245 261 273 258 252 208 188 230 225 229 188 187 204 204 198 194
80 71 123 135 133 153 153 165 163 168 179 191 182 186 187 175 195 211 222 214 155 221 230 206 221 215 220 215 231 230 233 249 245 233 218 236 224 232 172 192 192 197 185
102 101 111 121 130 145 151 172 175 194 176 210 200 193 179 175 204 221 234 171 206 216 234 204 207 215 228 171 188 228 258 255 259 239 239 221 218 202 239 173 179 190 183
125 128 139 148 150 149 148 177 189 188 184 196 192 181 171 175 202 193 216 205 224 224 229 208 197 191 216 172 180 169 202 226 247 238 205 19 332 243 252 173 178 184 161
140 146 156 155 142 151 153 199 189 155 69 123 118 170 182 172 197 197 210 222 211 208 217 212 195 202 195 198 207 189 174 211 160 155 185 221 240 261 189 179 199 166 140
146 146 143 138 149 180 174 162 147 146 181 199 186 117 130 187 177 190 198 245 211 221 199 189 204 204 173 208 193 237 260 262 165 155 179 208 205 228 206 186 171 137 146
137 140 139 140 167 172 149 149 158 243 176 157 148 107 81 68 270 214 220 224 203 195 209 203 202 192 199 209 220 212 236 227 239 160 153 175 188 211 122 171 135 116 116
140 140 142 155 171 136 183 138 180 183 39 45 83 69 195 42 297 229 224 179 199 202 223 209 211 193 211 207 231 251 207 222 194 66 179 162 154 167 97 74 79 88 105